Regional Weather Roundup
Issued by NWS

Home | Current Version | Previous Version | Graphics & Text | Print | Product List | Glossary On
Versions: 1 2 3 4 5 6 7 8 9 10 11 12 13 14 15 16 17 18 19 20 21 22 23 24 25 26 27 28 29 30 31 32 33 34 35 36 37 38 39 40 41 42 43 44 45 46 47 48 49 50
000
ASUS45 KTFX 310904
RWRMT
MONTANA HOURLY WEATHER ROUNDUP
NATIONAL WEATHER SERVICE GREAT FALLS MT
304 AM MDT FRI OCT 31 2014

NOTE: "FAIR" INDICATES FEW OR NO CLOUDS BELOW 12000 FEET WITH NO
SIGNIFICANT WEATHER AND/OR OBSTRUCTIONS TO VISIBILITY.

* THESE STATIONS ARE NOT UNDER NWS QUALITY CONTROL. THEY DO NOT
   REPORT WEATHER SUCH AS PRECIPITATION OR FOG.

MTZ001>007-043-311000-
WEST OF THE DIVIDE
CITY           SKY/WX    TMP DP  RH WIND       PRES   REMARKS
KALISPELL      FOG       36  36 100 CALM      29.91F VSB M1/4
MISSOULA       CLOUDY    37  37 100 NW3       29.93F
BUTTE          CLOUDY    34  28  79 CALM      30.04F
MULLAN PASS    CLOUDY    39  36  89 S10G18    29.90F WCI  32
* DEER LODGE   CLOUDY    52  30  43 S10        N/A
* ESSEX        N/A       40  36  86 SE11G17    N/A   WCI  33
* HAMILTON APT CLOUDY    41  37  86 E5         N/A
* LIBBY APT    MOCLDY    43  39  86 N/A        N/A
* LINCOLN      N/A       31  30  96 NW3        N/A
* LOOKOUT PASS N/A       39  38  96 SE6G14     N/A   WCI  35
* POLSON       N/A       40  40 100 N/A        N/A
* RONAN APT    CLOUDY    43  41  93 N/A        N/A
* SEELEY LAKE  N/A       32  31  96 NE1        N/A
* THOMP F APT  CLOUDY    51  28  41 E9G17      N/A
* YAAK HILL    N/A       42  40  93 NE1        N/A
$$

MTZ008-052>055-311000-
SOUTHWEST MONTANA
CITY           SKY/WX    TMP DP  RH WIND       PRES   REMARKS
BOZEMAN        PTCLDY    36  30  79 S5        30.05F WCI  32
DILLON         MOCLDY    36  28  73 SW3       30.04F
W YELLOWSTONE  PTCLDY    27  25  92 CALM      30.17F
* ENNIS APT    PTCLDY    48  28  46 W3         N/A
* THREE FORKS  PTCLDY    30  30 100 N/A        N/A
* BOULDER HILL N/A       40  24  53 S12        N/A   WCI  33
* MONIDA PASS  N/A       41  27  58 SE3        N/A
* RAYNOLDS PAS N/A       37  18  46 SE14       N/A   WCI  28
* WHITEHALL    N/A       33  28  82 W3G8       N/A
* WISE RIVER   N/A       33  30  89 SW2G7      N/A
$$

MTZ009>010-012-014-046-048-049-054-311000-
EAST SLOPES AND CENTRAL MONTANA
CITY           SKY/WX    TMP DP  RH WIND       PRES   REMARKS
CUT BANK       MOCLDY    32  30  92 E6        29.92F WCI  26
GREAT FALLS    MOCLDY    52  30  43 S15G21    29.94F
HELENA         PTCLDY    39  32  76 CALM      30.00F
MALMSTROM AFB  MOCLDY    37  34  89 N3        29.96F
* DEARBORN     N/A       42  35  76 SW1        N/A
* EAST GLACIER N/A       34  32  92 NW2        N/A
* MONARCH      N/A       53  23  31 S16G24     N/A
* SAINT MARY   N/A       36  31  82 SE3        N/A
* SWEET GRASS  N/A       36  34  92 S25G30     N/A   WCI  24
$$

MTZ011-013-016-021-035-040-045-047-050-051-311000-
NORTH CENTRAL MONTANA
CITY           SKY/WX    TMP DP  RH WIND       PRES   REMARKS
HAVRE          PTCLDY    34  30  85 NE17      29.98F WCI  23
LEWISTOWN      MOCLDY    43  32  65 E8        30.03F
* N BAR RANCH  CLEAR     43  30  60 VRB5      30.11F
* CHESTER      N/A       38  32  79 SE3        N/A
* DENTON       N/A       47  31  54 SE8        N/A
* GEYSER       N/A       35  31  85 E3         N/A
* JUDITH GAP   N/A       38  32  79 S13        N/A   WCI  30
* LOMA         N/A       40  33  76 NE16       N/A   WCI  32
$$

MTZ017>020-022>027-061-062-311000-
NORTHEAST MONTANA
CITY           SKY/WX    TMP DP  RH WIND       PRES   REMARKS
GLASGOW        MOCLDY    34  28  79 SE20      30.23F WCI  23
GLENDIVE       CLOUDY    34  28  79 S15G20    30.37S WCI  24
JORDAN         PTCLDY    30  28  92 SE13      30.21F WCI  20
SIDNEY         CLOUDY    34  27  76 SE17      30.41F WCI  23
WOLF POINT     CLOUDY    36  30  79 SE13      30.33F WCI  27
* BEAVER HILL  N/A       31  29  92 SE27G39    N/A   WCI  17
* CIRCLE       N/A       33  30  89 SE9G17     N/A   WCI  25
* LINDSAY DVD  N/A       31  29  92 SE19G27    N/A   WCI  19
* NAVAJO       N/A       29  26  89 SE18G24    N/A   WCI  17
* PLENTYWOOD A N/A       32 N/A N/A N/A        N/A
* POPLAR APT   N/A      N/A N/A N/A N/A        N/A
$$

MTZ028>042-056>058-311000-
SOUTHCENTRAL AND SOUTHEAST MONTANA
CITY           SKY/WX    TMP DP  RH WIND       PRES   REMARKS
BAKER          CLOUDY    34  28  79 SE24G31   30.36F WCI  22
BILLINGS       MOCLDY    39  30  70 N6        30.10F WCI  35
LIVINGSTON     PTCLDY    36  28  73 CALM      30.09F
MILES CITY     CLOUDY    34  30  85 SE17G26   30.28F WCI  23
* FORSYTH APT  PTCLDY    34  30  85 E11        N/A   WCI  26
* LAUREL APT   MOCLDY    41  27  58 N/A        N/A
* ROUNDUP APT  MOCLDY    36  28  73 N/A        N/A
* ALZADA       N/A       31  30  96 E17        N/A   WCI  20
* HYSHAM       N/A       43  31  63 E7         N/A
* LAME DEER    N/A       38  31  76 SE12G19    N/A   WCI  30
* REED POINT   N/A       34  30  85 N/A        N/A
* ROSCOE HILL  N/A       39  24  55 SW1        N/A
$$

REGIONAL REPORTS...DAKOTAS
CITY           SKY/WX    TMP DP  RH WIND       PRES   REMARKS
WILLISTON      CLOUDY    28  23  81 S15G23    30.42F WCI  16
DICKINSON      CLOUDY    28  25  89 SE22G29   30.42F WCI  14
BEACH          N/A       32  32 100 SE26G33   30.38F WCI  18
CROSBY         MOCLDY    23  23 100 SE8       30.43F WCI  14
TIOGA          CLEAR     25  25 100 S16G24    30.46F WCI  12
BISMARCK       PTCLDY    16  14  92 E7        30.58F WCI   6
GRAND FORKS    CLEAR     16  10  77 N5        30.60F WCI   8
FARGO          CLEAR     18  12  77 N8        30.59F WCI   8
BUFFALO SD     MOCLDY    30  28  92 SE18      30.34F WCI  18
RAPID CITY     FOG       30  28  92 SE12      30.46F VSB 1    WCI  20
$$

REGIONAL REPORTS...WYOMING/IDAHO/WASHINGTON
CITY           SKY/WX    TMP DP  RH WIND       PRES   REMARKS
GILLETTE       CLEAR     36  28  73 S23       30.27F WCI  24
SHERIDAN       PTCLDY    43  28  56 SE8       30.15F
CODY           MOCLDY    39  27  62 S3        30.14F
YELLOWSTONE LA PTCLDY    28  27  96 NW3       30.25F
SALMON         CLOUDY    36  32  85 CALM      30.00S
MULLAN PASS    CLOUDY    39  36  89 S10G18    29.90S WCI  32
SAND POINT     CLOUDY    45  45 100 NW3       29.82F
SPOKANE        CLOUDY    48  45  89 CALM      29.77F
$$

REGIONAL REPORTS...ALBERTA
CITY           SKY/WX    TMP DP  RH WIND       PRES   REMARKS
MEDICINE HAT   CLEAR     50  34  54 S20G28    29.89F

$$




USA.gov is the U.S. government's official web portal to all federal, state and local government web resources and services.